This demonstration page uses our WeatherBlox Daily Observations layout. Learn more.

Left ArrowRight Arrow

39.92423, -83.80882

Hourly Observations for February 7, 2019

Temp ( °F °C ) Dew Point ( °F °C ) Humidity (%) Winds ( mph kmh ) Pressure ( in mb ) Visibility ( mi km ) Precip ( " mm )
12:20 am 00:20 Cloudy with Light Rain 46 8 46 8 100 100 ENE 7 11 30.00 1016 1 1 0.02 0.51
12:29 am 00:29 Cloudy with Light Rain 46 8 46 8 100 100 ENE 8 13 29.99 1016 1 1 0.02 0.51
12:34 am 00:34 Cloudy with Light Rain 45 7 45 7 100 100 ENE 7 11 29.99 1016 1 2 0.02 0.51
12:47 am 00:47 Cloudy with Light Rain 45 7 45 7 100 100 ENE 6 9 30.00 1016 2 3 0.02 0.51
12:56 am 00:56 Cloudy with Light Rain 45 7.2 45 7.2 100 100 ENE 5 7 30.00 1016 1 2 0.03 0.76
1:07 am 01:07 Cloudy with Light Rain 45 7 45 7 100 100 ENE 6 9 30.00 1016 1 1 0.00 0.03
1:18 am 01:18 Cloudy with Light Rain 45 7 45 7 100 100 E 6 9 29.99 1016 1 1 0.00 0.03
1:44 am 01:44 Cloudy with Light Rain 45 7 45 7 100 100 E 8 13 29.98 1015 1 2 0.01 0.25
1:56 am 01:56 Cloudy with Light Rain 45 7.2 45 7.2 100 100 E 9 15 29.96 1015 1 1 0.01 0.25
2:10 am 02:10 Cloudy with Mist and Fog 45 7 45 7 100 100 E 9 15 29.97 1015 1 2 0.00 0.03
2:16 am 02:16 Cloudy with Mist and Fog 45 7 45 7 100 100 E 9 15 29.96 1015 3 5 0.00 0.03
2:56 am 02:56 Cloudy with Mist and Fog 44 6.7 44 6.7 100 100 ESE 9 15 29.94 1014 5 8 0.00 0.03
3:07 am 03:07 Cloudy with Mist and Fog 45 7 45 7 100 100 ESE 8 13 29.96 1015 5 8 0.00 0.00
3:38 am 03:38 Cloudy with Mist and Fog 45 7 45 7 100 100 ESE 8 13 29.95 1014 2 3 0.00 0.00
3:46 am 03:46 Cloudy with Mist and Fog 45 7 45 7 100 100 ESE 9 15 29.95 1014 1 1 0.00 0.00
3:56 am 03:56 Cloudy with Mist and Fog 44 6.7 44 6.7 100 100 ESE 9 15 29.94 1014 1 1 0.00 0.00
4:04 am 04:04 Cloudy with Fog 45 7 45 7 100 100 ESE 7 11 29.95 1014 1 1 0.00 0.00
4:13 am 04:13 Cloudy with Fog 45 7 45 7 100 100 ESE 7 11 29.95 1014 1 1 0.00 0.00
4:23 am 04:23 Cloudy with Fog 45 7 45 7 100 100 SE 7 11 29.94 1014 0 0 0.00 0.00
4:56 am 04:56 Cloudy with Fog 45 7.2 45 7.2 100 100 SE 3 6 29.96 1014 0 0 0.00 0.00
5:56 am 05:56 Cloudy with Fog 44 6.7 44 6.7 100 100 E 6 9 29.95 1014 0 0 0.00 0.00
6:56 am 06:56 Cloudy with Fog 45 7.2 45 7.2 100 100 E 8 13 29.91 1013 0 0 0.00 0.00
7:56 am 07:56 Cloudy with Fog 45 7.2 45 7.2 100 100 E 9 15 29.91 1013 0 0 0.00 0.00
8:56 am 08:56 Cloudy with Fog 46 7.8 46 7.8 100 100 E 7 11 29.93 1013 5 8 0.00 0.00
9:56 am 09:56 Cloudy with Light Rain 49 9.4 49 9.4 100 100 ESE 10 17 29.88 1012 1 1 0.08 2.03
10:02 am 10:02 Cloudy with Light Rain 48 9 48 9 100 100 ESE 14 22 29.87 1011 1 2 0.00 0.03
10:56 am 10:56 Cloudy with Light Rain 50 10 50 10 100 100 SE 9 15 29.87 1012 1 2 0.04 1.02
11:13 am 11:13 Cloudy with Rain 52 11 52 11 100 100 SE 9 15 29.86 1011 1 2 0.04 1.02
11:28 am 11:28 Cloudy with Rain 52 11 52 11 100 100 SSE 9 15 29.87 1011 3 4 0.08 2.03
11:56 am 11:56 Cloudy with Light Rain 53 11.7 53 11.7 100 100 SSE 14 22 29.85 1011 7 11 0.23 5.84
12:56 pm 12:56 Cloudy with Light Rain 54 12.2 54 12.2 100 100 SSE 12 19 29.79 1009 8 13 0.37 9.40
1:47 pm 13:47 Cloudy with Light Rain 55 13 55 13 100 100 SSE 14 22 29.74 1007 10 16 0.14 3.56
1:56 pm 13:56 Cloudy with Light Rain 55 12.8 55 12.8 100 100 SSE 14 22 29.74 1007 10 16 0.14 3.56
2:18 pm 14:18 Cloudy with Light Rain 55 13 55 13 100 100 SSE 15 24 29.72 1006 10 16 0.02 0.51
2:29 pm 14:29 Cloudy with Light Rain 55 13 55 13 100 100 SSE 14 22 29.71 1006 10 16 0.02 0.51
2:56 pm 14:56 Cloudy with Rain 58 14.4 58 14.4 100 100 S 14 22 29.70 1006 5 8 0.12 3.05
3:19 pm 15:19 Cloudy with Light Rain 59 15 59 15 100 100 W 31 50 29.73 1007 3 4 0.15 3.81
3:28 pm 15:28 Cloudy with Rain 57 14 57 14 100 100 W 17 28 29.74 1007 7 11 0.18 4.57
3:56 pm 15:56 Cloudy with Light Rain 57 13.9 57 13.9 100 100 SW 8 13 29.76 1008 10 16 0.22 5.59
4:56 pm 16:56 Cloudy with Light Rain 56 13.3 56 13.3 100 100 S 9 15 29.75 1007 10 16 0.04 1.02
5:56 pm 17:56 Cloudy with Light Rain 58 14.4 58 14.4 100 100 S 9 15 29.72 1007 10 16 0.03 0.76
6:56 pm 18:56 Cloudy with Light Rain 59 15 59 15 100 100 SSW 15 24 29.70 1006 10 16 0.07 1.78
7:15 pm 19:15 Cloudy with Rain 59 15 59 15 100 100 SSW 17 28 29.69 1005 10 16 0.04 1.02
7:29 pm 19:29 Cloudy with Light Rain 57 14 57 14 100 100 SSW 18 30 29.70 1006 10 16 0.05 1.27
7:56 pm 19:56 Cloudy with Light Rain 58 14.4 58 14.4 100 100 SW 16 26 29.70 1006 10 16 0.07 1.78
8:32 pm 20:32 Cloudy with Light Rain 48 9 48 9 100 100 W 30 48 29.76 1008 8 13 0.02 0.51
8:56 pm 20:56 Cloudy with Light Rain 47 8.3 47 8.3 100 100 WNW 26 43 29.78 1009 10 16 0.02 0.51
9:13 pm 21:13 Cloudy 45 7 45 7 100 100 W 30 48 29.82 1010 10 16 0.00 0.03
9:21 pm 21:21 Cloudy 45 7 43 6 93 93 W 26 43 29.84 1011 9 14 0.00 0.03
9:44 pm 21:44 Cloudy 43 6 43 6 100 100 W 20 31 29.86 1011 10 16 0.00 0.03
9:56 pm 21:56 Cloudy 41 5 41 5 100 100 W 20 31 29.86 1011 10 16 0.00 0.03
10:14 pm 22:14 Cloudy 39 4 39 4 100 100 W 24 39 29.91 1013 10 16 0.00 0.00
10:41 pm 22:41 Cloudy 39 4 39 4 100 100 W 23 37 29.91 1013 10 16 0.00 0.00
10:56 pm 22:56 Cloudy 38 3.3 35 1.7 89 89 W 29 46 29.93 1014 10 16 0.00 0.00
11:20 pm 23:20 Cloudy 37 3 34 1 87 87 W 23 37 29.98 1015 10 16 0.00 0.00
11:36 pm 23:36 Cloudy 36 2 34 1 93 93 W 28 44 29.97 1015 10 16 0.00 0.00
11:56 pm 23:56 Cloudy 35 1.7 31 -0.6 85 85 W 23 37 29.95 1014 10 16 0.00 0.00

Powered by AerisWeather